ISS (ZARYA) 1 25544U 98067A 26071.86901803 .00011348 00000+0 21655-3 0 9999 2 25544 51.6324 56.6367 0007923 186.1410 173.9482 15.48614629556824 POISK 1 36086U 09060A 26071.86901803 .00011348 00000+0 21655-3 0 9997 2 36086 51.6324 56.6367 0007923 186.1410 173.9482 15.48614629554443 CSS (TIANHE) 1 48274U 21035A 26071.65904515 .00026654 00000+0 31305-3 0 9994 2 48274 41.4661 190.0926 0006712 290.2953 69.7164 15.60827652278071 ISS (NAUKA) 1 49044U 21066A 26071.86901803 .00011348 00000+0 21655-3 0 9995 2 49044 51.6324 56.6367 0007923 186.1410 173.9482 15.48614629554452 FREGAT DEB 1 49271U 11037PF 26071.98788539 .00019193 00000+0 27403-1 0 9997 2 49271 51.6525 290.8604 0961558 66.9712 302.9578 12.40314724213102 CSS (WENTIAN) 1 53239U 22085A 26071.65904515 .00026654 00000+0 31305-3 0 9997 2 53239 41.4661 190.0926 0006712 290.2953 69.7164 15.60827652275615 CSS (MENGTIAN) 1 54216U 22143A 26071.65904515 .00026654 00000+0 31305-3 0 9998 2 54216 41.4661 190.0926 0006712 290.2953 69.7164 15.60827652275587 PROGRESS-MS 31 1 64751U 25146A 26071.86901803 .00011348 00000+0 21655-3 0 9990 2 64751 51.6324 56.6367 0007923 186.1410 173.9482 15.48614629554465 TIANZHOU-9 1 64786U 25149A 26071.65904515 .00026654 00000+0 31305-3 0 9990 2 64786 41.4661 190.0926 0006712 290.2953 69.7164 15.60827652275591 PROGRESS-MS 32 1 65586U 25204A 26071.86901803 .00011348 00000+0 21655-3 0 9992 2 65586 51.6324 56.6367 0007923 186.1410 173.9482 15.48614629554507 CYGNUS NG-23 1 65616U 25208A 26071.15917149 .00009166 00000+0 17667-3 0 9995 2 65616 51.6325 60.1463 0007984 183.4136 176.6799 15.48595269556748 YOTSUBA-KULOVER 1 65941U 98067XN 26071.29696299 .00252337 00000+0 11908-2 0 9995 2 65941 51.6212 43.7570 0005248 86.7909 273.3694 15.81783905 23914 E-KAGAKU-1 1 65943U 98067XQ 26071.30203425 .00242002 00000+0 11646-2 0 9991 2 65943 51.6239 43.8096 0005792 91.6608 268.5057 15.81386675 23916 HRC MONOBLOCK CAMERA 1 66052U 98067XR 26071.96239077 .00057439 00000+0 63184-3 0 9990 2 66052 51.6276 49.0120 0003784 106.7264 253.4145 15.62584835 22906 HTV-X1 1 66174U 25241A 26071.96616758 .00010857 00000+0 47039-3 0 9998 2 66174 51.6351 57.2626 0005807 182.7900 177.3045 15.22870559 21455 SZ-21 MODULE 1 66515U 25246C 26071.68367939 .00040419 00000+0 34395-3 0 9993 2 66515 41.4730 184.9262 0001118 307.7188 52.3552 15.68803443 18543 SHENZHOU-22 1 66645U 25272A 26071.65904515 .00026654 00000+0 31305-3 0 9993 2 66645 41.4661 190.0926 0006712 290.2953 69.7164 15.60827652267521 SOYUZ-MS 28 1 66664U 25275A 26071.86901803 .00011348 00000+0 21655-3 0 9998 2 66664 51.6324 56.6367 0007923 186.1410 173.9482 15.48614629554527 DUPLEX 1 66906U 98067XS 26071.21883992 .00037736 00000+0 52838-3 0 9999 2 66906 51.6293 56.7987 0002554 123.1889 236.9348 15.56413150 15524 ISS OBJECT XT 1 66907U 98067XT 26071.32038583 .00181210 00000+0 14377-2 0 9992 2 66907 51.6249 52.2093 0004715 95.5605 264.5930 15.70168045 15591 ISS OBJECT XU 1 66908U 98067XU 26071.19109037 .00173902 00000+0 13761-2 0 9996 2 66908 51.6251 52.8423 0004849 95.5022 264.6529 15.70253790 15574 SILVERSAT 1 66909U 98067XV 26071.18756588 .00230471 00000+0 15879-2 0 9992 2 66909 51.6249 52.0679 0005428 93.6368 266.5252 15.73352402 15581 ISS OBJECT XW 1 66910U 98067XW 26071.95313837 .00158268 00000+0 12885-2 0 9992 2 66910 51.6244 48.9273 0005325 105.6610 254.4975 15.69619162 15696 ISS OBJECT XX 1 66911U 98067XX 26071.49624840 .00293883 00000+0 17140-2 0 9993 2 66911 51.6223 49.6058 0006975 102.6102 257.5678 15.76985712 15631 ISS OBJECT XY 1 66912U 98067XY 26071.96806898 .00101500 00000+0 10318-2 0 9995 2 66912 51.6271 50.5463 0003327 107.6228 252.5131 15.64357529 15666 KNACKSAT-2 1 67683U 98067XZ 26071.56087589 .00042260 00000+0 69040-3 0 9999 2 67683 51.6314 57.5801 0009510 196.2104 163.8583 15.52078501 5234 GXIBA-1 1 67684U 98067YA 26071.33596012 .00086646 00000+0 12676-2 0 9999 2 67684 51.6305 58.3289 0011320 184.6561 175.4326 15.54791235 5203 CORAL 1 67685U 98067YB 26071.36262994 .00049518 00000+0 79543-3 0 9996 2 67685 51.6310 58.5071 0011413 191.9545 168.1176 15.52456287 5202 ISS OBJECT YC 1 67686U 98067YC 26071.22744255 .00056872 00000+0 89399-3 0 9998 2 67686 51.6318 59.1061 0008120 159.6101 200.5215 15.53033071 5182 LEOPARD 1 67687U 98067YD 26071.36505937 .00045748 00000+0 74214-3 0 9996 2 67687 51.6322 58.5246 0008020 163.8999 196.2247 15.52253756 5120 ISS OBJECT YE 1 67688U 98067YE 26071.93829696 .00053041 00000+0 84072-3 0 9999 2 67688 51.6314 55.6037 0007968 162.5532 197.5733 15.52834307 5218 CREW DRAGON 12 1 67796U 26031A 26071.86901803 .00011348 00000+0 21655-3 0 9996 2 67796 51.6324 56.6367 0007923 186.1410 173.9482 15.48614629556728